Location: Boncourt
(49.6160°N, 3.9448°E)
Time: 09:54:28
(UTC+00:00)

Cosmos 2058 Rocket - Pass Details

Date: 09 February 2023
Orbit: 610 x 637 km, 82.5° (Epoch: 23 March)

Event Time Altitude Azimuth Distance (km) Brightness Sun altitude
Rises 18:15:02 0° 345° (NNW) 2,908 6.6 -13.7°
Reaches altitude 10° 18:17:18 10° 341° (NNW) 2,001 5.8 -14.1°
Maximum altitude 18:21:36 51° 266° (W) 794 4.0 -14.8°
Drops below altitude 10° 18:25:53 10° 191° (S) 2,001 5.9 -15.5°
Sets 18:28:10 0° 186° (S) 2,908 6.6 -15.8°
